[[{"header":{"parameterUnit":"m.s-1","parameterCategory":2,"la1":30.2991,"la2":30.254,"lo1":-89.0895,"lo2":-89.0444,"dy":0.0017,"dx":0.0017,"nx":28,"ny":28,"refTime":"2025-01-17T03:00:00:Z","depth":"0","parameterNumber":2,"parameterNumberName":"U-component_of_CURRENTS"},"data":[0,0,0,0,0,0,0,0,0,0,0,0,0,0,0,0,0,0,0,0,0,0,0,0,0,0,0,0,0,0,0,0,0,0,0,0,0,0,0,0,0,0,0,0,0,0,0,0,0,0,0,0,0,0,0,0,0,0,0.2002,0.2002,0,0.2039,0.2039,0.204,0.2057,0.2057,0.2057,0.2056,0.1972,0.197,0.1967,0,0,0,0,0,0,0,0,0,0,0,0,0,0.2071,0.2069,0.2001,0.2002,0.2002,0.2038,0.2039,0.204,0.2057,0.2057,0.2057,0.2056,0.1972,0.197,0.1967,0,0,0,0,0,0,0,0,0,0,0,0,0,0.2068,0.2068,0.2001,0.2014,0.2016,0.2038,0.2039,0.204,0.2057,0.2057,0.2056,0.2056,0.1973,0.197,0.1967,0.1951,0,0,0.1957,0.1956,0,0,0,0,0,0,0,0,0.2068,0.2066,0.2012,0.2013,0.2015,0.2042,0.2033,0.2004,0.2057,0.2043,0.2056,0.2056,0.1983,0.1979,0.199,0.1947,0.1944,0.1957,0.1955,0.1954,0.1953,0,0,0,0,0,0,0,0.2068,0.2065,0.2017,0.2012,0.2014,0.2061,0.2059,0.2028,0.2012,0.2044,0.2045,0.2047,0.1983,0.1993,0.1988,0.1943,0.1957,0.1954,0.1952,0.1951,0.1903,0.1903,0,0,0,0,0,0,0.2054,0.2064,0.2016,0.2018,0.204,0.2059,0.2058,0.2034,0.2015,0.2013,0.2047,0.2048,0.1999,0.1992,0.1985,0.1969,0.1954,0.1951,0.1949,0.1902,0.1903,0.1903,0,0,0,0,0,0,0.2055,0.2049,0.2015,0.2043,0.2042,0.2057,0.2032,0.2035,0.2041,0.2019,0.2014,0.2049,0.1998,0.1989,0.196,0.1965,0.1949,0.1946,0.1901,0.1902,0.1903,0.1933,0,0,0,0,0,0,0.2057,0.2048,0.2032,0.2041,0.204,0.2022,0.2032,0.2036,0.2043,0.2044,0.2018,0.2011,0.1998,0.1965,0.1956,0.196,0.1944,0.19,0.1902,0.1903,0.1931,0.1935,0.1938,0,0,0,0,0,0.2059,0.203,0.2031,0.2026,0.2014,0.2021,0.2025,0.2038,0.2043,0.2043,0.2031,0.2012,0.1967,0.1962,0.1952,0.1955,0.19,0.1901,0.1903,0.193,0.1934,0.1938,0,0,0,0,0,0,0.2039,0.203,0.203,0.1996,0.2007,0.2023,0.2022,0.2035,0.2031,0.2026,0.2009,0.2001,0.1979,0.1963,0.1959,0.1948,0.1934,0.1934,0.1958,0.1962,0.1965,0.1979,0.1941,0,0,0,0,0,0.2029,0.2014,0.2014,0.199,0.199,0.2008,0.2013,0.2024,0.2022,0.2021,0.2008,0.1994,0.198,0.1967,0.1948,0.1932,0.1936,0.1933,0.1937,0.1939,0.1946,0.1994,0.2003,0.1908,0.1908,0.1908,0,0,0.2017,0.2009,0.2001,0.1988,0.1994,0.2004,0.201,0.2013,0.2027,0.2007,0.201,0.1996,0.1977,0.1969,0.1958,0.1953,0.1959,0.1941,0.1944,0.1949,0.1996,0.2006,0.2014,0.1909,0.1909,0.1909,0,0,0.2003,0.1974,0.1969,0.1975,0.1983,0.1994,0.1993,0.2008,0.2015,0.2017,0.2012,0.2008,0.1981,0.1983,0.1977,0.1986,0.1973,0.1976,0.2004,0.205,0.2058,0.2066,0.2043,0.2049,0.1981,0.1982,0.1982,0,0.1993,0.1977,0.1971,0.1974,0.1978,0.1989,0.1994,0.2007,0.2016,0.2021,0.2017,0.2015,0.1996,0.2,0.201,0.1994,0.1998,0.1988,0.2056,0.2064,0.2071,0.2046,0.2052,0.1983,0.1983,0.1983,0.1983,0,0.1992,0.1978,0.1971,0.1979,0.1983,0.1984,0.1998,0.2006,0.2015,0.2035,0.204,0.2034,0.2037,0.2034,0.2022,0.2061,0.2035,0.2053,0.2047,0.2083,0.2053,0.2059,0.1985,0.1985,0.1984,0.1984,0,0,0.1962,0.1972,0.1968,0.1972,0.1983,0.1985,0.1999,0.2016,0.2031,0.2048,0.2071,0.2068,0.2077,0.2072,0.2065,0.2105,0.2145,0.2104,0.2106,0.2082,0.2204,0.2013,0.2,0.2185,0.2187,0.2189,0.2148,0,0.1964,0.1976,0.1976,0.1981,0.1984,0.1991,0.2002,0.2021,0.2042,0.2067,0.2081,0.2093,0.2088,0.2091,0.2134,0.2152,0.2168,0.2152,0.2172,0.2171,0.2001,0.2004,0.1895,0.1836,0.2153,0.2154,0.2155,0,0.1962,0.1968,0.1983,0.198,0.1978,0.1985,0.2001,0.2014,0.2052,0.207,0.2103,0.2115,0.2155,0.2157,0.2211,0.2204,0.2203,0.2214,0.2213,0.2033,0.1992,0.186,0.1834,0.1818,0.2163,0.2162,0.2162,0,0.1963,0.1962,0.1975,0.1978,0.1988,0.1986,0.1985,0.2014,0.2023,0.2077,0.2097,0.2149,0.2168,0.2216,0.2211,0.2233,0.2255,0.229,0.2104,0.2088,0.1995,0.1967,0.196,0.2325,0.2325,0.2325,0.2325,0,0.197,0.1966,0.1972,0.1982,0.1967,0.1977,0.1975,0.1992,0.2025,0.2039,0.2095,0.2116,0.2194,0.2204,0.2219,0.2144,0.2258,0.2094,0.2073,0.1993,0.1966,0.1946,0.1945,0.2324,0.2324,0.2324,0.2325,0,0.1979,0.1986,0.1985,0.1986,0.1972,0.1963,0.1943,0.1956,0.199,0.2017,0.2033,0.2101,0.2101,0.2112,0.2159,0.2113,0.2014,0.2027,0.1875,0.1835,0.1627,0.163,0.1515,0.1487,0.1832,0.1827,0.1823,0,0.1994,0.2003,0.1985,0.1973,0.1968,0.1945,0.1931,0.1936,0.1953,0.1997,0.2014,0.2015,0.2005,0.1948,0.1863,0.1787,0.1817,0.1628,0.1647,0.1575,0.1569,0.1558,0.1547,0.1535,0.1529,0.1524,0.152,0,0.2025,0.2019,0.2025,0.1993,0.1966,0.1922,0.1904,0.1899,0.1917,0.1933,0.1944,0.1935,0.1829,0.1688,0.1536,0.1498,0.1537,0.1515,0.1534,0.1385,0.129,0.1265,0.1564,0.1475,0.1479,0.1483,0.1485,0.1487,0.2048,0.2047,0.2055,0.2003,0.1966,0.1906,0.1844,0.1843,0.1822,0.1788,0.1839,0.1733,0.1573,0.1337,0.1288,0.1088,0.117,0.1065,0.1087,0.1094,0.102,0.1149,0.0974,0.0976,0.0977,0.0978,0.0979,0,0.2086,0.2081,0.2059,0.1985,0.1915,0.1892,0.183,0.1752,0.1688,0.1636,0.1597,0.135,0.1171,0.1033,0.0795,0.0715,0.0753,0.07,0.0747,0.0773,0.0974,0.0916,0.0609,0.0609,0.0609,0.0609,0.0609,0.0609,0.2112,0.211,0.2072,0.1944,0.1875,0.1725,0.1659,0.1567,0.1485,0.1277,0.109,0.1009,0.0875,0.0693,0.0547,0.0523,0.0559,0.044,0.0528,0.0753,0.0793,0.0832,0.0781,0.045,0.045,0.0319,0.0318,0.0317]},{"header":{"parameterUnit":"m.s-1","parameterCategory":2,"la1":30.2991,"la2":30.254,"lo1":-89.0895,"lo2":-89.0444,"dy":0.0017,"dx":0.0017,"nx":28,"ny":28,"refTime":"2025-01-17T03:00:00:Z","depth":"0","parameterNumber":3,"parameterNumberName":"V-component_of_CURRENTS"},"data":[0,0,0,0,0,0,0,0,0,0,0,0,0,0,0,0,0,0,0,0,0,0,0,0,0,0,0,0,0,0,0,0,0,0,0,0,0,0,0,0,0,0,0,0,0,0,0,0,0,0,0,0,0,0,0,0,0,0,-0.0585,-0.0585,0,-0.0565,-0.0565,-0.0564,-0.0514,-0.0513,-0.0512,-0.0511,-0.0406,-0.0404,-0.0402,0,0,0,0,0,0,0,0,0,0,0,0,0,-0.0519,-0.0521,-0.0585,-0.0585,-0.0585,-0.0565,-0.0565,-0.0564,-0.0514,-0.0513,-0.0512,-0.0511,-0.0407,-0.0405,-0.0402,0,0,0,0,0,0,0,0,0,0,0,0,0,-0.0526,-0.0521,-0.0585,-0.056,-0.0558,-0.0566,-0.0565,-0.0564,-0.0514,-0.0513,-0.0512,-0.0511,-0.0408,-0.0405,-0.0402,-0.0406,0,0,-0.0392,-0.0391,0,0,0,0,0,0,0,0,-0.0525,-0.0528,-0.0564,-0.0562,-0.0559,-0.0544,-0.0503,-0.0508,-0.0514,-0.0527,-0.0511,-0.051,-0.0448,-0.0441,-0.0436,-0.0401,-0.0396,-0.0392,-0.039,-0.0389,-0.0388,0,0,0,0,0,0,0,-0.0525,-0.0528,-0.0574,-0.0564,-0.0561,-0.053,-0.053,-0.0504,-0.049,-0.0526,-0.0523,-0.0527,-0.0445,-0.044,-0.0433,-0.0395,-0.0392,-0.0389,-0.0387,-0.0386,-0.0314,-0.0314,0,0,0,0,0,0,-0.0539,-0.0528,-0.0574,-0.0573,-0.0543,-0.0532,-0.0532,-0.0547,-0.0492,-0.0484,-0.0528,-0.0524,-0.0445,-0.0437,-0.0429,-0.0372,-0.0389,-0.0386,-0.0384,-0.0314,-0.0314,-0.0314,0,0,0,0,0,0,-0.0538,-0.0544,-0.0575,-0.0552,-0.0554,-0.0536,-0.0552,-0.0547,-0.0539,-0.0495,-0.0484,-0.0524,-0.0444,-0.0434,-0.0409,-0.0369,-0.0384,-0.0382,-0.0314,-0.0314,-0.0314,-0.0294,0,0,0,0,0,0,-0.0536,-0.0544,-0.0553,-0.0554,-0.0556,-0.0576,-0.0554,-0.0548,-0.0545,-0.054,-0.0488,-0.0478,-0.0442,-0.0414,-0.0406,-0.0365,-0.0379,-0.0314,-0.0314,-0.0314,-0.0295,-0.0293,-0.0292,0,0,0,0,0,-0.0534,-0.0545,-0.0554,-0.0559,-0.0572,-0.0577,-0.0575,-0.0555,-0.0546,-0.0542,-0.0514,-0.0479,-0.0407,-0.0412,-0.0403,-0.036,-0.0314,-0.0314,-0.0314,-0.0295,-0.0293,-0.0292,0,0,0,0,0,0,-0.051,-0.0542,-0.0551,-0.0569,-0.0576,-0.057,-0.0567,-0.0561,-0.0538,-0.0532,-0.0488,-0.0476,-0.0435,-0.0417,-0.0424,-0.0343,-0.0351,-0.0349,-0.034,-0.0338,-0.0337,-0.0294,-0.0377,0,0,0,0,0,-0.0518,-0.0537,-0.0559,-0.057,-0.0581,-0.0579,-0.0578,-0.057,-0.0556,-0.0545,-0.051,-0.0472,-0.043,-0.0402,-0.0371,-0.0335,-0.0299,-0.0301,-0.03,-0.0298,-0.026,-0.0181,-0.0167,-0.0314,-0.0314,-0.0314,0,0,-0.0507,-0.053,-0.0537,-0.0567,-0.0572,-0.057,-0.0574,-0.0578,-0.0551,-0.0537,-0.0491,-0.0472,-0.0425,-0.0376,-0.0355,-0.0351,-0.025,-0.0298,-0.0297,-0.0258,-0.0179,-0.0164,-0.0151,-0.0314,-0.0314,-0.0314,0,0,-0.0493,-0.0527,-0.0536,-0.0549,-0.057,-0.0567,-0.0572,-0.0575,-0.0552,-0.0528,-0.0498,-0.0456,-0.0412,-0.0351,-0.0317,-0.0294,-0.0253,-0.0295,-0.0236,-0.0161,-0.0146,-0.0133,-0.0115,-0.01,-0.0284,-0.0284,-0.0284,0,-0.048,-0.0499,-0.0535,-0.0547,-0.054,-0.0566,-0.0553,-0.0542,-0.0526,-0.0487,-0.0509,-0.0405,-0.0382,-0.0275,-0.027,-0.028,-0.0257,-0.0243,-0.0154,-0.014,-0.0127,-0.0111,-0.0095,-0.0283,-0.0283,-0.0283,-0.0283,0,-0.0471,-0.0485,-0.0492,-0.0512,-0.0508,-0.051,-0.0505,-0.049,-0.0476,-0.0445,-0.0365,-0.0339,-0.0261,-0.0258,-0.0254,-0.0144,-0.0168,-0.0169,-0.0151,-0.011,-0.0098,-0.0081,-0.0281,-0.0282,-0.0282,-0.0282,0,0,-0.044,-0.0478,-0.0477,-0.0467,-0.0489,-0.0474,-0.0442,-0.0394,-0.0337,-0.0323,-0.0224,-0.0174,-0.0157,-0.0118,-0.0105,-0.0044,0.0033,-0.0067,-0.0064,-0.0035,0.0165,0.0144,0.0159,0.0049,0.0053,0.0056,0.012,0,-0.0417,-0.0417,-0.0435,-0.0401,-0.0397,-0.0398,-0.0352,-0.0309,-0.0272,-0.0192,-0.014,-0.0062,-0.0103,-0.0063,-0.0006,0.0038,0.0085,0.0014,0.0112,0.0114,0.0105,0.0183,0.0168,0.0226,0.0136,0.0139,0.0141,0,-0.0396,-0.0397,-0.0369,-0.0332,-0.0325,-0.0299,-0.0211,-0.0176,-0.0087,-0.0053,0.0026,0.0057,0.016,0.0104,0.0222,0.0176,0.0178,0.0193,0.0196,0.0198,0.0128,0.018,0.0259,0.0244,0.0166,0.0164,0.0163,0,-0.034,-0.0336,-0.03,-0.0297,-0.027,-0.0227,-0.0198,-0.0124,-0.006,0.0041,0.0101,0.0205,0.027,0.0316,0.0323,0.0287,0.0434,0.0387,0.0367,0.0362,0.0385,0.0377,0.0487,0.0477,0.0476,0.0476,0.0476,0,-0.0301,-0.0266,-0.0272,-0.0253,-0.0177,-0.0176,-0.0073,-0.0036,0.0051,0.0147,0.0178,0.0273,0.033,0.0402,0.0389,0.0439,0.0488,0.0415,0.0408,0.0382,0.0373,0.0388,0.0371,0.0479,0.0478,0.0478,0.0477,0,-0.023,-0.0249,-0.0202,-0.0172,-0.0154,-0.0096,-0.0017,0.0063,0.0112,0.0236,0.0274,0.0366,0.045,0.048,0.056,0.053,0.0572,0.0559,0.0494,0.048,0.044,0.0423,0.0554,0.0585,0.057,0.057,0.0571,0,-0.0187,-0.0169,-0.0135,-0.0099,-0.0081,-0.001,0.0049,0.0097,0.0174,0.029,0.0365,0.0466,0.0546,0.064,0.0626,0.0632,0.0604,0.0596,0.054,0.0481,0.0457,0.0438,0.0454,0.0549,0.0549,0.0549,0.0549,0,-0.0101,-0.01,-0.0066,-0.0002,0.0055,0.0123,0.0196,0.0255,0.0319,0.0398,0.0503,0.0567,0.0643,0.067,0.0664,0.0647,0.0602,0.0596,0.0589,0.0518,0.046,0.0469,0.0413,0.055,0.055,0.055,0.0549,0.0549,-0.0029,0.0008,0.0039,0.0112,0.017,0.024,0.0289,0.0362,0.045,0.0551,0.0594,0.0677,0.0686,0.069,0.0671,0.0605,0.0615,0.0563,0.0561,0.0558,0.0569,0.049,0.0585,0.0585,0.0585,0.0586,0.0586,0,0.0043,0.008,0.0156,0.0217,0.0286,0.03,0.0384,0.0422,0.0496,0.0605,0.0675,0.0724,0.0713,0.0683,0.0597,0.0567,0.0565,0.0552,0.0533,0.0564,0.0543,0.0522,0.0545,0.0545,0.0545,0.0545,0.0545,0.0545,0.0086,0.0155,0.0189,0.0303,0.0348,0.041,0.0441,0.0491,0.0559,0.0664,0.0724,0.0784,0.0769,0.0604,0.0536,0.0529,0.0548,0.0524,0.0564,0.0524,0.0524,0.0524,0.0502,0.0521,0.0521,0.0585,0.0585,0.0585]}],[{"header":{"parameterUnit":"m.s-1","parameterCategory":2,"la1":30.2991,"la2":30.254,"lo1":-89.0895,"lo2":-89.0444,"dy":0.0017,"dx":0.0017,"nx":28,"ny":28,"refTime":"2025-01-17T03:00:00:Z","depth":"2","parameterNumber":2,"parameterNumberName":"U-component_of_CURRENTS"},"data":[0,0,0,0,0,0,0,0,0,0,0,0,0,0,0,0,0,0,0,0,0,0,0,0,0,0,0,0,0,0,0,0,0,0,0,0,0,0,0,0,0,0,0,0,0,0,0,0,0,0,0,0,0,0,0,0,0,0,0.0938,0.0937,0,0.0768,0.0765,0.0762,0.0677,0.0677,0.0678,0.0679,0.0792,0.0794,0.0796,0,0,0,0,0,0,0,0,0,0,0,0,0,0.0894,0.0896,0.0938,0.0937,0.0935,0.0768,0.0765,0.0761,0.0676,0.0678,0.0679,0.068,0.0791,0.0794,0.0796,0,0,0,0,0,0,0,0,0,0,0,0,0,0.0828,0.0897,0.0938,0.0881,0.0875,0.0769,0.0764,0.076,0.0676,0.0678,0.0679,0.068,0.079,0.0793,0.0796,0.0787,0,0,0.0806,0.0807,0,0,0,0,0,0,0,0,0.0832,0.0828,0.089,0.0885,0.0878,0.0754,0.079,0.0787,0.0676,0.074,0.0679,0.0681,0.0812,0.0813,0.0758,0.0792,0.0797,0.0806,0.0808,0.081,0.0811,0,0,0,0,0,0,0,0.0837,0.0833,0.0859,0.0889,0.0882,0.0763,0.0757,0.0786,0.0767,0.0735,0.0731,0.0729,0.0809,0.0755,0.0761,0.0799,0.0806,0.0809,0.0811,0.0812,0.0937,0.0939,0,0,0,0,0,0,0.0894,0.084,0.0865,0.0855,0.087,0.0765,0.0757,0.0784,0.076,0.0759,0.0728,0.0725,0.0749,0.0758,0.0766,0.0874,0.081,0.0813,0.0814,0.0936,0.0938,0.0939,0,0,0,0,0,0,0.0894,0.0899,0.0872,0.0849,0.084,0.0768,0.0795,0.078,0.0775,0.0754,0.0756,0.0747,0.075,0.0761,0.0816,0.0874,0.0814,0.0817,0.0934,0.0937,0.0939,0.1016,0,0,0,0,0,0,0.0894,0.0901,0.0921,0.0855,0.0844,0.0826,0.0795,0.0776,0.0774,0.077,0.0771,0.0778,0.0752,0.0812,0.082,0.0878,0.0819,0.0933,0.0935,0.0938,0.1011,0.102,0.1028,0,0,0,0,0,0.0893,0.0902,0.0923,0.0925,0.0882,0.0827,0.0808,0.0751,0.0775,0.0756,0.0772,0.0781,0.0835,0.0815,0.0824,0.0884,0.0931,0.0935,0.0938,0.1008,0.1019,0.1028,0,0,0,0,0,0,0.0873,0.0894,0.0915,0.0929,0.0902,0.0817,0.0781,0.0789,0.0775,0.0808,0.0796,0.0802,0.0867,0.0867,0.0846,0.0926,0.0887,0.0893,0.0938,0.0948,0.0956,0.0981,0.0822,0,0,0,0,0,0.0894,0.0932,0.091,0.0933,0.0911,0.087,0.0844,0.0844,0.083,0.0823,0.0822,0.0845,0.0874,0.0908,0.0909,0.0968,0.0972,0.1013,0.1021,0.1028,0.1053,0.1145,0.1165,0.095,0.095,0.095,0,0,0.0885,0.0917,0.0928,0.0935,0.0896,0.0862,0.0854,0.085,0.0854,0.085,0.0849,0.0876,0.0893,0.0931,0.0964,0.0952,0.1072,0.1032,0.1038,0.106,0.1151,0.1172,0.1191,0.0952,0.0952,0.0951,0,0,0.0887,0.0921,0.0936,0.0908,0.0912,0.0892,0.0918,0.0878,0.0881,0.0907,0.0911,0.0984,0.099,0.1017,0.1038,0.1108,0.1105,0.1114,0.1194,0.1283,0.1302,0.132,0.127,0.1282,0.113,0.113,0.113,0,0.0883,0.0914,0.0922,0.0906,0.0887,0.092,0.0903,0.0896,0.0896,0.0943,0.0926,0.1007,0.1031,0.1125,0.114,0.1134,0.1137,0.1155,0.1297,0.1315,0.1331,0.1277,0.129,0.1134,0.1134,0.1133,0.1133,0,0.0862,0.0883,0.0873,0.0891,0.0868,0.0868,0.0869,0.0917,0.0964,0.0976,0.1081,0.1098,0.1162,0.1185,0.1187,0.1326,0.1267,0.1289,0.1277,0.1358,0.1293,0.1305,0.114,0.1138,0.1137,0.1136,0,0,0.0864,0.0869,0.0855,0.0895,0.0874,0.0881,0.0913,0.0968,0.1058,0.1079,0.1169,0.1235,0.1286,0.1314,0.1344,0.1436,0.1528,0.1427,0.1429,0.1382,0.1636,0.1402,0.139,0.1595,0.1599,0.1603,0.1513,0,0.0851,0.0839,0.0839,0.0859,0.0856,0.0904,0.0923,0.1002,0.1075,0.1163,0.1258,0.1327,0.1317,0.1386,0.1475,0.1527,0.1579,0.1544,0.156,0.1558,0.1349,0.1406,0.1332,0.1234,0.1525,0.1527,0.1528,0,0.0791,0.0836,0.0829,0.0916,0.0913,0.0942,0.1072,0.1107,0.1237,0.1289,0.14,0.1439,0.1557,0.155,0.166,0.1641,0.1651,0.1675,0.1673,0.145,0.1351,0.1216,0.1244,0.1548,0.1547,0.1545,0.1544,0,0.0796,0.0816,0.0853,0.0853,0.0939,0.1016,0.1072,0.1175,0.1226,0.1394,0.1444,0.1567,0.162,0.1702,0.1697,0.1715,0.1785,0.1805,0.1579,0.1556,0.1493,0.1457,0.1904,0.1904,0.1905,0.1905,0.1905,0,0.0744,0.0798,0.0884,0.0931,0.1007,0.106,0.1179,0.1253,0.1358,0.142,0.1516,0.1555,0.1683,0.1707,0.1725,0.1635,0.1788,0.1592,0.1551,0.15,0.1467,0.1762,0.1747,0.1901,0.1902,0.1903,0.1903,0,0.0711,0.0743,0.0858,0.0997,0.1019,0.1088,0.1173,0.1276,0.136,0.1448,0.149,0.1562,0.1564,0.1592,0.1682,0.1614,0.1601,0.1534,0.1375,0.1317,0.1295,0.1285,0.1286,0.1278,0.1271,0.1265,0.126,0,0.068,0.0763,0.0899,0.0958,0.1032,0.1126,0.1182,0.1255,0.1328,0.1419,0.1447,0.1468,0.1434,0.1373,0.1327,0.1246,0.1373,0.1096,0.1132,0.1288,0.1249,0.1249,0.1249,0.1049,0.1043,0.1038,0.1033,0,0.0755,0.0836,0.0877,0.0981,0.1061,0.1114,0.12,0.1209,0.1311,0.1334,0.1337,0.1317,0.1233,0.1107,0.0968,0.0921,0.1103,0.0976,0.1277,0.1182,0.105,0.1014,0.1026,0.0988,0.0992,0.0996,0.0998,0.1,0.0775,0.0798,0.0895,0.0977,0.1047,0.1104,0.1099,0.116,0.115,0.1136,0.1172,0.1076,0.1043,0.0751,0.0685,0.062,0.0701,0.0693,0.0718,0.0747,0.0701,0.0562,0.0392,0.0393,0.0394,0.0395,0.0395,0,0.0817,0.0842,0.0928,0.0967,0.1046,0.1105,0.1115,0.1074,0.1004,0.097,0.0916,0.0723,0.0588,0.0556,0.0405,0.033,0.0428,0.0288,0.0482,0.0523,0.0561,0.0517,0.0153,0.0153,0.0152,0.0152,0,0,0.0814,0.0844,0.0892,0.0981,0.1035,0.1012,0.0985,0.0883,0.0811,0.0654,0.0563,0.0537,0.0533,0.0365,0.0306,0.0236,0.0388,0.0189,0.038,0.0653,0.0692,0.0773,0.0744,0,0,0,0,0]},{"header":{"parameterUnit":"m.s-1","parameterCategory":2,"la1":30.2991,"la2":30.254,"lo1":-89.0895,"lo2":-89.0444,"dy":0.0017,"dx":0.0017,"nx":28,"ny":28,"refTime":"2025-01-17T03:00:00:Z","depth":"2","parameterNumber":3,"parameterNumberName":"V-component_of_CURRENTS"},"data":[0,0,0,0,0,0,0,0,0,0,0,0,0,0,0,0,0,0,0,0,0,0,0,0,0,0,0,0,0,0,0,0,0,0,0,0,0,0,0,0,0,0,0,0,0,0,0,0,0,0,0,0,0,0,0,0,0,0,-0.042,-0.0419,0,-0.0313,-0.0311,-0.0309,-0.0222,-0.0222,-0.0222,-0.0222,-0.0219,-0.0218,-0.0218,0,0,0,0,0,0,0,0,0,0,0,0,0,-0.0331,-0.0334,-0.042,-0.0419,-0.0419,-0.0314,-0.0311,-0.0309,-0.0222,-0.0222,-0.0222,-0.0222,-0.0219,-0.0218,-0.0218,0,0,0,0,0,0,0,0,0,0,0,0,0,-0.0303,-0.0335,-0.042,-0.037,-0.0365,-0.0314,-0.0311,-0.0308,-0.0222,-0.0222,-0.0222,-0.0222,-0.0219,-0.0218,-0.0218,-0.0217,0,0,-0.0218,-0.0218,0,0,0,0,0,0,0,0,-0.0305,-0.0305,-0.0378,-0.0374,-0.0368,-0.029,-0.0279,-0.0286,-0.0222,-0.0265,-0.0222,-0.0222,-0.0259,-0.0255,-0.0219,-0.0217,-0.0217,-0.0218,-0.0218,-0.0218,-0.0218,0,0,0,0,0,0,0,-0.0307,-0.0308,-0.0367,-0.0378,-0.0372,-0.028,-0.0277,-0.0278,-0.0257,-0.0262,-0.0258,-0.0262,-0.0255,-0.0219,-0.0219,-0.0217,-0.0218,-0.0218,-0.0218,-0.0218,-0.022,-0.022,0,0,0,0,0,0,-0.0353,-0.0311,-0.0371,-0.0365,-0.0347,-0.0283,-0.0279,-0.0307,-0.0255,-0.0249,-0.0262,-0.0259,-0.0219,-0.0219,-0.0219,-0.0219,-0.0218,-0.0218,-0.0218,-0.022,-0.022,-0.022,0,0,0,0,0,0,-0.0351,-0.036,-0.0375,-0.0341,-0.0338,-0.0288,-0.0317,-0.0305,-0.0294,-0.0256,-0.025,-0.0269,-0.0219,-0.0219,-0.0238,-0.0219,-0.0218,-0.0217,-0.022,-0.022,-0.022,-0.0219,0,0,0,0,0,0,-0.035,-0.036,-0.0377,-0.0346,-0.0343,-0.0358,-0.0318,-0.0303,-0.03,-0.0294,-0.026,-0.0257,-0.0219,-0.0239,-0.0238,-0.0219,-0.0217,-0.022,-0.022,-0.022,-0.0219,-0.0219,-0.0219,0,0,0,0,0,-0.0347,-0.0367,-0.0379,-0.0385,-0.0375,-0.036,-0.0347,-0.0302,-0.0301,-0.0292,-0.0279,-0.026,-0.0239,-0.024,-0.0239,-0.0219,-0.0219,-0.022,-0.022,-0.0219,-0.0219,-0.0219,0,0,0,0,0,0,-0.0329,-0.036,-0.0372,-0.0401,-0.0395,-0.0349,-0.0333,-0.0327,-0.0303,-0.0312,-0.0277,-0.0273,-0.0275,-0.0263,-0.0265,-0.0221,-0.022,-0.0221,-0.0219,-0.022,-0.022,-0.0179,-0.0217,0,0,0,0,0,-0.0344,-0.0375,-0.0383,-0.0409,-0.041,-0.0385,-0.0372,-0.0362,-0.0347,-0.0335,-0.0311,-0.0291,-0.0269,-0.0263,-0.0245,-0.0239,-0.0204,-0.0222,-0.0223,-0.0223,-0.019,-0.012,-0.011,-0.0221,-0.0221,-0.0221,0,0,-0.0337,-0.0368,-0.0379,-0.0408,-0.0395,-0.0381,-0.0374,-0.0378,-0.0354,-0.0346,-0.0308,-0.0305,-0.0274,-0.0247,-0.0246,-0.0238,-0.0183,-0.0223,-0.0223,-0.0189,-0.0119,-0.0108,-0.0098,-0.0222,-0.0222,-0.0221,0,0,-0.0339,-0.0381,-0.0396,-0.0398,-0.0417,-0.0398,-0.0418,-0.0398,-0.0373,-0.0368,-0.034,-0.0329,-0.0308,-0.0252,-0.023,-0.023,-0.0195,-0.0238,-0.0193,-0.0128,-0.0117,-0.0107,-0.0088,-0.0076,-0.0227,-0.0227,-0.0227,0,-0.0335,-0.0365,-0.0391,-0.0402,-0.0392,-0.0416,-0.0404,-0.0381,-0.0367,-0.0339,-0.0364,-0.0292,-0.029,-0.0213,-0.0207,-0.0224,-0.02,-0.0194,-0.0124,-0.0113,-0.0103,-0.0086,-0.0073,-0.0227,-0.0227,-0.0227,-0.0227,0,-0.0329,-0.0355,-0.0364,-0.0386,-0.0374,-0.0382,-0.0368,-0.0358,-0.0357,-0.0321,-0.0278,-0.0262,-0.0203,-0.0212,-0.021,-0.0129,-0.0144,-0.0141,-0.0117,-0.0091,-0.0077,-0.0063,-0.0227,-0.0227,-0.0227,-0.0227,0,0,-0.0326,-0.0355,-0.0357,-0.0356,-0.0373,-0.0358,-0.0333,-0.029,-0.025,-0.0242,-0.0163,-0.0142,-0.0131,-0.0104,-0.0099,-0.005,0.0009,-0.0065,-0.0062,-0.0036,0.0127,0.0089,0.01,0.0027,0.0031,0.0033,0.0093,0,-0.0316,-0.0319,-0.0332,-0.0313,-0.0307,-0.031,-0.0265,-0.0234,-0.0205,-0.0137,-0.0108,-0.0048,-0.0087,-0.0065,-0.002,0.0016,0.0053,-0.0008,0.009,0.0093,0.0067,0.0118,0.0052,0.01,0.0107,0.0109,0.0111,0,-0.0299,-0.0308,-0.0287,-0.0271,-0.0263,-0.0245,-0.0177,-0.0147,-0.0068,-0.0041,0.0019,0.0046,0.0125,0.0075,0.0173,0.0135,0.0136,0.0146,0.0149,0.0137,0.0083,0.0082,0.0125,0.0134,0.0132,0.0131,0.0129,0,-0.0265,-0.0269,-0.0247,-0.0246,-0.0228,-0.0204,-0.0182,-0.0114,-0.0059,0.0028,0.008,0.0165,0.0219,0.0256,0.0262,0.0231,0.0357,0.0318,0.0281,0.0276,0.0256,0.0244,0.0391,0.0391,0.0391,0.039,0.039,0,-0.0243,-0.0236,-0.0232,-0.0228,-0.0173,-0.0172,-0.0093,-0.0065,0.0014,0.0104,0.0135,0.0224,0.0271,0.0338,0.0322,0.0353,0.0408,0.0316,0.0312,0.0245,0.0233,0.0298,0.0286,0.0393,0.0392,0.0392,0.0391,0,-0.0208,-0.0221,-0.0201,-0.018,-0.0166,-0.0123,-0.0051,0.0021,0.0062,0.0179,0.0212,0.0307,0.0381,0.0401,0.0469,0.0435,0.0459,0.0443,0.0336,0.0318,0.0309,0.0296,0.0426,0.0425,0.0425,0.0425,0.0425,0,-0.0191,-0.0183,-0.0153,-0.0124,-0.0119,-0.0057,0.0005,0.005,0.0123,0.0233,0.0303,0.0394,0.0472,0.0539,0.0497,0.0477,0.0473,0.0392,0.0327,0.0342,0.0324,0.0312,0.03,0.0277,0.0276,0.0275,0.0274,0,-0.016,-0.0154,-0.0125,-0.0054,-0.0,0.0075,0.0144,0.0198,0.0266,0.0344,0.0452,0.0512,0.0544,0.0524,0.0475,0.0435,0.0391,0.0367,0.0468,0.027,0.0205,0.0186,0.0179,0.0263,0.0265,0.0265,0.0266,0.0266,-0.0125,-0.0086,-0.004,0.0049,0.0105,0.0192,0.0248,0.0322,0.0418,0.0505,0.0548,0.0601,0.0552,0.0478,0.042,0.0326,0.0338,0.0279,0.0282,0.0286,0.025,0.0188,0.0234,0.0235,0.0235,0.0236,0.0236,0,-0.0069,-0.0014,0.0065,0.0149,0.0228,0.0246,0.0344,0.0391,0.0483,0.0553,0.0616,0.0549,0.0505,0.0439,0.0281,0.0213,0.0191,0.0181,0.0161,0.017,0.0178,0.0137,0.009,0.009,0.0091,0.0091,0,0,-0.0037,0.0054,0.0119,0.026,0.0305,0.0388,0.0435,0.0485,0.0525,0.0581,0.0588,0.0621,0.0519,0.0391,0.0277,0.0184,0.0195,0.0155,0.0267,0.0261,0.0271,0.0216,0.016,0,0,0,0,0]}],[{"header":{"parameterUnit":"m.s-1","parameterCategory":2,"la1":30.2991,"la2":30.254,"lo1":-89.0895,"lo2":-89.0444,"dy":0.0017,"dx":0.0017,"nx":28,"ny":28,"refTime":"2025-01-17T03:00:00:Z","depth":"4","parameterNumber":2,"parameterNumberName":"U-component_of_CURRENTS"},"data":[0,0,0,0,0,0,0,0,0,0,0,0,0,0,0,0,0,0,0,0,0,0,0,0,0,0,0,0,0,0,0,0,0,0,0,0,0,0,0,0,0,0,0,0,0,0,0,0,0,0,0,0,0,0,0,0,0,0,-0.0455,-0.0456,0,-0.0476,-0.0476,-0.0476,-0.0475,-0.0475,-0.0475,-0.0475,-0.0559,-0.0561,-0.0563,0,0,0,0,0,0,0,0,0,0,0,0,0,-0.0443,-0.0443,-0.0455,-0.0456,-0.0457,-0.0476,-0.0476,-0.0476,-0.0475,-0.0475,-0.0475,-0.0475,-0.0558,-0.0561,-0.0563,0,0,0,0,0,0,0,0,0,0,0,0,0,-0.045,-0.0443,-0.0455,-0.0462,-0.0463,-0.0476,-0.0476,-0.0476,-0.0475,-0.0475,-0.0475,-0.0475,-0.0557,-0.056,-0.0564,-0.0581,0,0,-0.0573,-0.0575,0,0,0,0,0,0,0,0,-0.045,-0.045,-0.046,-0.0461,-0.0463,-0.0477,-0.0503,-0.0516,-0.0475,-0.0466,-0.0475,-0.0475,-0.054,-0.0544,-0.0541,-0.0585,-0.0588,-0.0574,-0.0576,-0.0577,-0.0578,0,0,0,0,0,0,0,-0.0449,-0.045,-0.0459,-0.0461,-0.0462,-0.0473,-0.0474,-0.0504,-0.05,-0.0467,-0.0468,-0.0477,-0.054,-0.0538,-0.0544,-0.0589,-0.0574,-0.0576,-0.0578,-0.058,-0.0577,-0.0575,0,0,0,0,0,0,-0.0454,-0.0449,-0.0459,-0.046,-0.0461,-0.0474,-0.0474,-0.0469,-0.0498,-0.0503,-0.0477,-0.0477,-0.0532,-0.054,-0.0547,-0.0524,-0.0577,-0.058,-0.0582,-0.0579,-0.0577,-0.0574,0,0,0,0,0,0,-0.0453,-0.0454,-0.0458,-0.0459,-0.0461,-0.0474,-0.0468,-0.0469,-0.0479,-0.0506,-0.0511,-0.0487,-0.0533,-0.0542,-0.0554,-0.0529,-0.0581,-0.0584,-0.0581,-0.0578,-0.0576,-0.0509,0,0,0,0,0,0,-0.0452,-0.0453,-0.0457,-0.0459,-0.0462,-0.0474,-0.0468,-0.047,-0.0486,-0.0486,-0.0517,-0.0524,-0.0534,-0.0549,-0.0557,-0.0535,-0.0587,-0.0584,-0.058,-0.0576,-0.0513,-0.0504,-0.0496,0,0,0,0,0,-0.0451,-0.0452,-0.0457,-0.0459,-0.0464,-0.0475,-0.0476,-0.0483,-0.0486,-0.0492,-0.0491,-0.0523,-0.053,-0.055,-0.056,-0.0539,-0.0586,-0.0581,-0.0577,-0.0517,-0.0506,-0.0496,0,0,0,0,0,0,-0.0457,-0.0453,-0.0457,-0.046,-0.0473,-0.0476,-0.0484,-0.0492,-0.0495,-0.0494,-0.0514,-0.052,-0.0516,-0.0536,-0.0558,-0.0521,-0.0558,-0.0555,-0.0509,-0.0499,-0.049,-0.0462,-0.059,0,0,0,0,0,-0.046,-0.0461,-0.0462,-0.0474,-0.0471,-0.048,-0.0489,-0.0493,-0.0497,-0.0499,-0.0518,-0.0518,-0.0503,-0.051,-0.0514,-0.0513,-0.0503,-0.0497,-0.0488,-0.0481,-0.0461,-0.0392,-0.0375,-0.056,-0.056,-0.056,0,0,-0.0473,-0.0471,-0.0475,-0.0476,-0.048,-0.0486,-0.0484,-0.0495,-0.0498,-0.051,-0.0518,-0.0503,-0.0496,-0.0473,-0.0473,-0.049,-0.0429,-0.0475,-0.0469,-0.0453,-0.0386,-0.0368,-0.0352,-0.0557,-0.0557,-0.0558,0,0,-0.0493,-0.0486,-0.0488,-0.049,-0.0498,-0.05,-0.0507,-0.0511,-0.0504,-0.0504,-0.049,-0.0451,-0.0473,-0.043,-0.0415,-0.0364,-0.0386,-0.0374,-0.0308,-0.0242,-0.0226,-0.0212,-0.0206,-0.0191,-0.0366,-0.0366,-0.0366,0,-0.0511,-0.0506,-0.0497,-0.0495,-0.0502,-0.0508,-0.0514,-0.0507,-0.0518,-0.049,-0.0503,-0.0436,-0.0438,-0.0362,-0.0321,-0.0344,-0.0328,-0.0354,-0.023,-0.0215,-0.0202,-0.0199,-0.0184,-0.0362,-0.0362,-0.0363,-0.0363,0,-0.0525,-0.0523,-0.0523,-0.0521,-0.0528,-0.0534,-0.0524,-0.0516,-0.0507,-0.0483,-0.0416,-0.0382,-0.0325,-0.0315,-0.0298,-0.0194,-0.0223,-0.023,-0.0258,-0.0179,-0.0182,-0.0167,-0.0357,-0.0358,-0.0359,-0.036,0,0,-0.0552,-0.0535,-0.0536,-0.0536,-0.0536,-0.0545,-0.0527,-0.0495,-0.0457,-0.043,-0.0367,-0.0286,-0.0234,-0.0209,-0.0178,-0.0109,-0.0004,-0.0115,-0.0114,-0.0112,0.011,-0.0001,0.0003,0.0018,0.0021,0.0024,0.0059,0,-0.0566,-0.0569,-0.0556,-0.057,-0.0569,-0.0549,-0.0525,-0.0492,-0.0453,-0.0394,-0.0304,-0.0234,-0.0206,-0.0152,-0.0072,-0.0034,0.0043,-0.0015,0.0037,0.0038,-0.0072,0.002,0.0036,0.007,0.0073,0.0075,0.0077,0,-0.057,-0.0576,-0.0589,-0.0567,-0.056,-0.0562,-0.051,-0.0481,-0.0379,-0.0331,-0.0225,-0.0174,-0.0055,-0.0042,0.0093,0.0054,0.0114,0.0141,0.0143,0.0032,-0.0045,-0.0017,0.0103,0.0101,0.0099,0.0097,0.0096,0,-0.058,-0.0588,-0.0604,-0.0605,-0.0587,-0.0564,-0.0529,-0.0447,-0.0391,-0.027,-0.0215,-0.0092,-0.0032,0.0075,0.012,0.0136,0.0226,0.0244,0.0199,0.0188,0.0244,0.0229,0.0383,0.0383,0.0383,0.0383,0.0383,0,-0.0574,-0.0584,-0.0609,-0.0606,-0.0602,-0.0566,-0.0502,-0.0443,-0.0334,-0.0261,-0.0161,-0.0093,0.0012,0.0057,0.0129,0.0168,0.0235,0.0233,0.0213,0.0265,0.0252,0.0252,0.0236,0.0384,0.0384,0.0384,0.0384,0,-0.0559,-0.058,-0.0607,-0.0607,-0.0601,-0.0589,-0.0491,-0.0426,-0.0323,-0.0231,-0.0185,-0.0084,-0.0011,0.0033,0.0148,0.0151,0.0211,0.0216,0.0212,0.0186,0.0136,0.0123,0.0215,0.0212,0.021,0.0207,0.0206,0,-0.0546,-0.0556,-0.0611,-0.0626,-0.0621,-0.0582,-0.0529,-0.0425,-0.0363,-0.023,-0.0197,-0.0107,-0.0046,0.0017,0.0066,0.0139,0.0161,0.0152,0.0233,0.0159,0.0131,0.0122,0.0113,0.0201,0.0201,0.02,0.0199,0,-0.0516,-0.0553,-0.057,-0.0604,-0.0599,-0.0578,-0.0502,-0.0455,-0.0336,-0.0279,-0.0168,-0.01,-0.0053,0.001,0.0016,0.0088,0.0134,0.0126,0.0135,0.0212,0.0143,0.0115,0.011,0.019,0.0191,0.0192,0.0193,0,-0.0498,-0.0516,-0.0544,-0.0565,-0.0577,-0.0554,-0.0517,-0.043,-0.0353,-0.0223,-0.0208,-0.01,-0.0057,-0.0018,0.0003,0.0022,0.0084,0.0096,0.0108,0.0119,0.0066,-0.0037,-0.0036,0,0,0,0,0,-0.0473,-0.0465,-0.0482,-0.051,-0.0522,-0.0526,-0.049,-0.0449,-0.0374,-0.0297,-0.0234,-0.017,-0.0091,-0.0051,-0.0033,-0.0041,0.0058,-0.0028,0.0072,0.0139,0.015,0.0094,0,0,0,0,0,0,-0.0453,-0.0465,-0.0466,-0.0454,-0.0455,-0.0452,-0.0435,-0.0397,-0.0344,-0.0276,-0.0221,-0.0191,-0.0109,-0.008,-0.0029,-0.0026,0.0029,0.0013,0.0012,0.0133,0.0142,0.0151,0.0097,0,0,0,0,0]},{"header":{"parameterUnit":"m.s-1","parameterCategory":2,"la1":30.2991,"la2":30.254,"lo1":-89.0895,"lo2":-89.0444,"dy":0.0017,"dx":0.0017,"nx":28,"ny":28,"refTime":"2025-01-17T03:00:00:Z","depth":"4","parameterNumber":3,"parameterNumberName":"V-component_of_CURRENTS"},"data":[0,0,0,0,0,0,0,0,0,0,0,0,0,0,0,0,0,0,0,0,0,0,0,0,0,0,0,0,0,0,0,0,0,0,0,0,0,0,0,0,0,0,0,0,0,0,0,0,0,0,0,0,0,0,0,0,0,0,0.0402,0.0402,0,0.0437,0.0438,0.0439,0.0468,0.0468,0.0468,0.0467,0.05,0.0501,0.0502,0,0,0,0,0,0,0,0,0,0,0,0,0,0.0367,0.0368,0.0402,0.0402,0.0401,0.0437,0.0438,0.0439,0.0468,0.0468,0.0468,0.0467,0.05,0.0501,0.0502,0,0,0,0,0,0,0,0,0,0,0,0,0,0.0395,0.0368,0.0402,0.0417,0.0418,0.0437,0.0438,0.0439,0.0468,0.0468,0.0467,0.0467,0.05,0.0501,0.0503,0.0517,0,0,0.0507,0.0508,0,0,0,0,0,0,0,0,0.0393,0.0397,0.0414,0.0416,0.0417,0.0443,0.0438,0.0463,0.0468,0.0454,0.0467,0.0467,0.0478,0.0481,0.0496,0.0518,0.0519,0.0507,0.0508,0.0509,0.0509,0,0,0,0,0,0,0,0.0392,0.0396,0.0421,0.0414,0.0416,0.0424,0.0428,0.0443,0.0471,0.0455,0.0456,0.0452,0.0479,0.0494,0.0496,0.052,0.0507,0.0509,0.051,0.051,0.0524,0.0523,0,0,0,0,0,0,0.0377,0.0394,0.0419,0.0421,0.0399,0.0424,0.0429,0.0439,0.0471,0.0474,0.0453,0.0454,0.0492,0.0495,0.0498,0.0518,0.0509,0.051,0.0511,0.0524,0.0523,0.0523,0,0,0,0,0,0,0.0377,0.038,0.0418,0.0403,0.0408,0.0425,0.0436,0.044,0.046,0.0468,0.0472,0.0468,0.0492,0.0496,0.0507,0.0519,0.0511,0.0513,0.0525,0.0524,0.0523,0.0558,0,0,0,0,0,0,0.0376,0.038,0.0393,0.0403,0.0408,0.0431,0.0436,0.0441,0.0455,0.0457,0.0482,0.0485,0.0492,0.0505,0.0509,0.0521,0.0514,0.0525,0.0524,0.0523,0.0557,0.0558,0.0559,0,0,0,0,0,0.0375,0.0389,0.0394,0.0397,0.0423,0.043,0.0435,0.0449,0.0456,0.0467,0.0477,0.0484,0.05,0.0506,0.0511,0.0524,0.0526,0.0525,0.0523,0.0557,0.0558,0.0559,0,0,0,0,0,0,0.0382,0.0393,0.0398,0.0416,0.0422,0.0434,0.0445,0.0453,0.0473,0.0474,0.0487,0.049,0.0509,0.0502,0.0508,0.0519,0.0511,0.051,0.0534,0.0536,0.0536,0.0531,0.0515,0,0,0,0,0,0.0387,0.04,0.0408,0.042,0.0425,0.0438,0.0446,0.0451,0.0462,0.0472,0.0489,0.0495,0.0507,0.0509,0.0521,0.0529,0.0509,0.0533,0.0534,0.0535,0.053,0.0496,0.0494,0.0519,0.0519,0.0519,0,0,0.0391,0.0398,0.0406,0.0422,0.0431,0.0435,0.0444,0.0453,0.0468,0.0471,0.0503,0.051,0.0511,0.0525,0.053,0.052,0.052,0.0534,0.0535,0.0529,0.0495,0.0493,0.0491,0.0518,0.0518,0.0518,0,0,0.0391,0.0413,0.0419,0.0424,0.043,0.0439,0.0441,0.0458,0.0482,0.051,0.0509,0.0509,0.0547,0.053,0.0532,0.0537,0.0535,0.0548,0.0543,0.0511,0.0509,0.0507,0.0495,0.0491,0.0538,0.0538,0.0538,0,0.0389,0.0401,0.0421,0.0421,0.0424,0.0439,0.044,0.0468,0.0488,0.0501,0.0524,0.0543,0.0546,0.0534,0.054,0.0541,0.0532,0.0547,0.0513,0.0511,0.0508,0.0496,0.0491,0.0539,0.0539,0.0539,0.0539,0,0.0388,0.0397,0.0399,0.0408,0.0421,0.042,0.0448,0.0477,0.0513,0.0526,0.055,0.0554,0.0556,0.0558,0.0563,0.0537,0.0543,0.053,0.0516,0.0508,0.0495,0.049,0.0542,0.0541,0.0541,0.054,0,0,0.0372,0.0393,0.0392,0.0407,0.0411,0.0431,0.0455,0.048,0.0502,0.0535,0.0551,0.0567,0.0564,0.0561,0.0552,0.0522,0.0506,0.0525,0.0522,0.0522,0.0456,0.0418,0.0409,0.0496,0.0495,0.0494,0.0461,0,0.0357,0.0362,0.0377,0.0396,0.0402,0.043,0.0457,0.0485,0.0519,0.0543,0.0543,0.0564,0.0567,0.0576,0.0545,0.052,0.0492,0.0517,0.0454,0.0453,0.0428,0.0401,0.0491,0.0457,0.0455,0.0455,0.0454,0,0.0345,0.0351,0.0365,0.0404,0.0413,0.0451,0.0501,0.0524,0.0543,0.0567,0.0564,0.0565,0.0538,0.0547,0.049,0.0513,0.0488,0.0464,0.0462,0.0408,0.0405,0.046,0.0444,0.0445,0.0446,0.0447,0.0447,0,0.0323,0.035,0.0372,0.0379,0.0421,0.0476,0.0517,0.0545,0.0565,0.0586,0.0587,0.0559,0.0552,0.0516,0.0474,0.0491,0.0404,0.0414,0.0352,0.0351,0.0383,0.0385,0.0361,0.0361,0.0361,0.0361,0.0361,0,0.0293,0.0308,0.0395,0.0401,0.047,0.0507,0.0568,0.06,0.0615,0.06,0.0608,0.0577,0.0545,0.0491,0.0464,0.0387,0.0393,0.0343,0.0329,0.04,0.0404,0.038,0.0383,0.036,0.036,0.0361,0.0361,0,0.0249,0.0289,0.0321,0.0405,0.0462,0.052,0.0616,0.0635,0.066,0.0637,0.0642,0.0593,0.0522,0.0473,0.0395,0.0365,0.0303,0.0271,0.0355,0.0348,0.0282,0.0287,0.0213,0.0211,0.0209,0.0208,0.0207,0,0.0219,0.0232,0.0333,0.0394,0.0456,0.0559,0.0612,0.0662,0.0653,0.0625,0.0588,0.0535,0.0488,0.036,0.0316,0.0249,0.0235,0.0221,0.0249,0.0268,0.0262,0.027,0.0276,0.0204,0.0204,0.0204,0.0203,0,0.0151,0.0197,0.0224,0.0357,0.0459,0.0536,0.0616,0.059,0.0594,0.0618,0.0532,0.0482,0.0384,0.0317,0.0257,0.021,0.0244,0.0205,0.0209,0.0235,0.0257,0.0255,0.0263,0.0198,0.0198,0.0199,0.0199,0,0.0108,0.0121,0.0194,0.0324,0.0425,0.0493,0.053,0.0536,0.0536,0.0489,0.0454,0.0393,0.0371,0.0292,0.0234,0.0186,0.0186,0.0191,0.0196,0.0202,0.0207,0.0235,0.0144,0,0,0,0,0,0.0079,0.0111,0.0181,0.0297,0.0385,0.0479,0.0519,0.0529,0.0505,0.0438,0.045,0.0364,0.0282,0.0253,0.0194,0.0199,0.0171,0.013,0.0178,0.0168,0.0174,0.0178,0,0,0,0,0,0,0.0065,0.0106,0.0151,0.0262,0.0347,0.0444,0.0467,0.0456,0.0414,0.0392,0.0346,0.0367,0.0284,0.0321,0.0203,0.019,0.0214,0.011,0.0109,0.0164,0.017,0.0175,0.0182,0,0,0,0,0]}]]